1800300041,2010,04,01,00,0.044
1800300041,2010,04,01,01,0.042
1800300041,2010,04,01,02,0.041
1800300041,2010,04,01,03,0.038
1800300041,2010,04,01,04,0.038
1800300041,2010,04,01,05,0.033
1800300041,2010,04,01,06,0.026
1800300041,2010,04,01,07,0.027
1800300041,2010,04,01,08,0.040
1800300041,2010,04,01,09,0.045
1800300041,2010,04,01,10,0.050
1800300041,2010,04,01,11,0.055
1800300041,2010,04,01,12,0.062
1800300041,2010,04,01,13,0.068
1800300041,2010,04,01,14,0.071
1800300041,2010,04,01,15,0.073
1800300041,2010,04,01,16,0.075
1800300041,2010,04,01,17,0.074
1800300041,2010,04,01,18,0.069
1800300041,2010,04,01,19,0.060
1800300041,2010,04,01,20,0.059
1800300041,2010,04,01,21,0.056
1800300041,2010,04,01,22,0.053
1800300041,2010,04,01,23,0.050
1800300041,2010,04,02,00,0.048
1800300041,2010,04,02,01,0.048
1800300041,2010,04,02,02,0.048
1800300041,2010,04,02,03,0.042
1800300041,2010,04,02,04,0.040
1800300041,2010,04,02,05,0.038
1800300041,2010,04,02,06,0.033
1800300041,2010,04,02,07,0.039
1800300041,2010,04,02,08,0.044
1800300041,2010,04,02,09,0.047
1800300041,2010,04,02,10,0.056
1800300041,2010,04,02,11,0.061
1800300041,2010,04,02,12,0.065
1800300041,2010,04,02,13,0.067
1800300041,2010,04,02,14,0.068
1800300041,2010,04,02,15,0.070
1800300041,2010,04,02,16,0.068
1800300041,2010,04,02,17,0.064
1800300041,2010,04,02,18,0.061
1800300041,2010,04,02,19,0.058
1800300041,2010,04,02,20,0.053
1800300041,2010,04,02,21,0.057
1800300041,2010,04,02,22,0.056
1800300041,2010,04,02,23,0.052
1800300041,2010,04,03,00,0.049
1800300041,2010,04,03,01,0.046
1800300041,2010,04,03,02,0.051
1800300041,2010,04,03,03,0.051
1800300041,2010,04,03,04,0.048
1800300041,2010,04,03,05,0.044
1800300041,2010,04,03,06,0.043
1800300041,2010,04,03,07,0.041
1800300041,2010,04,03,08,0.043
1800300041,2010,04,03,09,0.048
1800300041,2010,04,03,10,0.053
1800300041,2010,04,03,11,0.044
1800300041,2010,04,03,12,0.056
1800300041,2010,04,03,13,0.062
1800300041,2010,04,03,14,0.060
1800300041,2010,04,03,15,0.058
1800300041,2010,04,03,16,0.058
1800300041,2010,04,03,17,0.053
1800300041,2010,04,03,18,0.050
1800300041,2010,04,03,19,0.043
1800300041,2010,04,03,20,0.037
1800300041,2010,04,03,21,0.036
1800300041,2010,04,03,22,0.030
1800300041,2010,04,03,23,0.027
1800300041,2010,04,04,00,0.019
1800300041,2010,04,04,01,0.012
1800300041,2010,04,04,02,0.010
1800300041,2010,04,04,03,0.022
1800300041,2010,04,04,04,0.022
1800300041,2010,04,04,05,0.012
1800300041,2010,04,04,06,0.016
1800300041,2010,04,04,07,0.019
1800300041,2010,04,04,08,0.026
1800300041,2010,04,04,09,0.038
1800300041,2010,04,04,10,0.043
1800300041,2010,04,04,11,0.049
1800300041,2010,04,04,12,0.056
1800300041,2010,04,04,13,0.061
1800300041,2010,04,04,14,0.063
1800300041,2010,04,04,15,0.064
1800300041,2010,04,04,16,0.062
1800300041,2010,04,04,17,0.060
1800300041,2010,04,04,18,0.058
1800300041,2010,04,04,19,0.055
1800300041,2010,04,04,20,0.054
1800300041,2010,04,04,21,0.053
1800300041,2010,04,04,22,0.052
1800300041,2010,04,04,23,0.050
1800300041,2010,04,05,00,99
1800300041,2010,04,05,01,0.038
1800300041,2010,04,05,02,0.042
1800300041,2010,04,05,03,0.046
1800300041,2010,04,05,04,0.042
1800300041,2010,04,05,05,0.037
1800300041,2010,04,05,06,0.033
1800300041,2010,04,05,07,0.037
1800300041,2010,04,05,08,0.041
1800300041,2010,04,05,09,0.047
1800300041,2010,04,05,10,0.051
1800300041,2010,04,05,11,0.059
1800300041,2010,04,05,12,0.063
1800300041,2010,04,05,13,0.064
1800300041,2010,04,05,14,0.064
1800300041,2010,04,05,15,0.065
1800300041,2010,04,05,16,99
1800300041,2010,04,05,17,0.064
1800300041,2010,04,05,18,0.060
1800300041,2010,04,05,19,0.049
1800300041,2010,04,05,20,0.042
1800300041,2010,04,05,21,0.045
1800300041,2010,04,05,22,0.044
1800300041,2010,04,05,23,0.041
1800300041,2010,04,06,00,0.040
1800300041,2010,04,06,01,0.035
1800300041,2010,04,06,02,0.032
1800300041,2010,04,06,03,0.032
1800300041,2010,04,06,04,0.035
1800300041,2010,04,06,05,0.036
1800300041,2010,04,06,06,0.034
1800300041,2010,04,06,07,0.037
1800300041,2010,04,06,08,0.040
1800300041,2010,04,06,09,0.044
1800300041,2010,04,06,10,0.047
1800300041,2010,04,06,11,0.052
1800300041,2010,04,06,12,0.056
1800300041,2010,04,06,13,0.057
1800300041,2010,04,06,14,0.059
1800300041,2010,04,06,15,0.061
1800300041,2010,04,06,16,0.063
1800300041,2010,04,06,17,0.065
1800300041,2010,04,06,18,0.063
1800300041,2010,04,06,19,0.057
1800300041,2010,04,06,20,0.051
1800300041,2010,04,06,21,0.047
1800300041,2010,04,06,22,0.046
1800300041,2010,04,06,23,0.045
1800300041,2010,04,07,00,0.049
1800300041,2010,04,07,01,0.050
1800300041,2010,04,07,02,0.050
1800300041,2010,04,07,03,0.048
1800300041,2010,04,07,04,0.045
1800300041,2010,04,07,05,0.043
1800300041,2010,04,07,06,0.042
1800300041,2010,04,07,07,0.042
1800300041,2010,04,07,08,0.041
1800300041,2010,04,07,09,0.039
1800300041,2010,04,07,10,0.038
1800300041,2010,04,07,11,0.043
1800300041,2010,04,07,12,0.046
1800300041,2010,04,07,13,0.038
1800300041,2010,04,07,14,0.028
1800300041,2010,04,07,15,0.028
1800300041,2010,04,07,16,0.032
1800300041,2010,04,07,17,0.035
1800300041,2010,04,07,18,0.035
1800300041,2010,04,07,19,0.052
1800300041,2010,04,07,20,0.040
1800300041,2010,04,07,21,0.030
1800300041,2010,04,07,22,0.039
1800300041,2010,04,07,23,0.047
1800300041,2010,04,08,00,0.045
1800300041,2010,04,08,01,0.039
1800300041,2010,04,08,02,0.035
1800300041,2010,04,08,03,0.031
1800300041,2010,04,08,04,0.027
1800300041,2010,04,08,05,0.024
1800300041,2010,04,08,06,0.024
1800300041,2010,04,08,07,0.031
1800300041,2010,04,08,08,0.032
1800300041,2010,04,08,09,0.033
1800300041,2010,04,08,10,0.033
1800300041,2010,04,08,11,99
1800300041,2010,04,08,12,99
1800300041,2010,04,08,13,0.025
1800300041,2010,04,08,14,0.026
1800300041,2010,04,08,15,0.025
1800300041,2010,04,08,16,0.024
1800300041,2010,04,08,17,0.022
1800300041,2010,04,08,18,0.024
1800300041,2010,04,08,19,0.026
1800300041,2010,04,08,20,0.026
1800300041,2010,04,08,21,0.026
1800300041,2010,04,08,22,0.027
1800300041,2010,04,08,23,0.027
1800300041,2010,04,09,00,99
1800300041,2010,04,09,01,99
1800300041,2010,04,09,02,0.027
1800300041,2010,04,09,03,0.027
1800300041,2010,04,09,04,0.028
1800300041,2010,04,09,05,0.020
1800300041,2010,04,09,06,0.020
1800300041,2010,04,09,07,0.023
1800300041,2010,04,09,08,0.026
1800300041,2010,04,09,09,0.031
1800300041,2010,04,09,10,0.033
1800300041,2010,04,09,11,0.037
1800300041,2010,04,09,12,0.041
1800300041,2010,04,09,13,0.045
1800300041,2010,04,09,14,0.044
1800300041,2010,04,09,15,0.044
1800300041,2010,04,09,16,0.044
1800300041,2010,04,09,17,0.045
1800300041,2010,04,09,18,0.041
1800300041,2010,04,09,19,0.035
1800300041,2010,04,09,20,0.028
1800300041,2010,04,09,21,0.015
1800300041,2010,04,09,22,0.001
1800300041,2010,04,09,23,0.001
1800300041,2010,04,10,00,-0.00
1800300041,2010,04,10,01,-0.00
1800300041,2010,04,10,02,-0.00
1800300041,2010,04,10,03,-0.00
1800300041,2010,04,10,04,0.000
1800300041,2010,04,10,05,0.002
1800300041,2010,04,10,06,0.007
1800300041,2010,04,10,07,0.017
1800300041,2010,04,10,08,0.033
1800300041,2010,04,10,09,0.038
1800300041,2010,04,10,10,0.043
1800300041,2010,04,10,11,0.050
1800300041,2010,04,10,12,0.057
1800300041,2010,04,10,13,0.063
1800300041,2010,04,10,14,0.066
1800300041,2010,04,10,15,0.069
1800300041,2010,04,10,16,0.070
1800300041,2010,04,10,17,0.071
1800300041,2010,04,10,18,0.069
1800300041,2010,04,10,19,0.065
1800300041,2010,04,10,20,0.060
1800300041,2010,04,10,21,0.058
1800300041,2010,04,10,22,0.056
1800300041,2010,04,10,23,0.052
1800300041,2010,04,11,00,0.052
1800300041,2010,04,11,01,0.050
1800300041,2010,04,11,02,0.048
1800300041,2010,04,11,03,0.038
1800300041,2010,04,11,04,0.034
1800300041,2010,04,11,05,0.036
1800300041,2010,04,11,06,0.029
1800300041,2010,04,11,07,0.040
1800300041,2010,04,11,08,0.038
1800300041,2010,04,11,09,0.040
1800300041,2010,04,11,10,0.045
1800300041,2010,04,11,11,0.048
1800300041,2010,04,11,12,0.051
1800300041,2010,04,11,13,0.057
1800300041,2010,04,11,14,0.059
1800300041,2010,04,11,15,0.060
1800300041,2010,04,11,16,0.061
1800300041,2010,04,11,17,0.058
1800300041,2010,04,11,18,0.057
1800300041,2010,04,11,19,0.051
1800300041,2010,04,11,20,0.042
1800300041,2010,04,11,21,0.037
1800300041,2010,04,11,22,0.030
1800300041,2010,04,11,23,0.033
1800300041,2010,04,12,00,99
1800300041,2010,04,12,01,0.036
1800300041,2010,04,12,02,0.033
1800300041,2010,04,12,03,0.030
1800300041,2010,04,12,04,0.028
1800300041,2010,04,12,05,0.024
1800300041,2010,04,12,06,0.023
1800300041,2010,04,12,07,0.027
1800300041,2010,04,12,08,0.032
1800300041,2010,04,12,09,0.040
1800300041,2010,04,12,10,0.043
1800300041,2010,04,12,11,0.048
1800300041,2010,04,12,12,0.054
1800300041,2010,04,12,13,0.055
1800300041,2010,04,12,14,0.056
1800300041,2010,04,12,15,0.056
1800300041,2010,04,12,16,0.056
1800300041,2010,04,12,17,0.055
1800300041,2010,04,12,18,0.051
1800300041,2010,04,12,19,0.045
1800300041,2010,04,12,20,0.040
1800300041,2010,04,12,21,0.043
1800300041,2010,04,12,22,0.044
1800300041,2010,04,12,23,99
1800300041,2010,04,13,00,99
1800300041,2010,04,13,01,99
1800300041,2010,04,13,02,99
1800300041,2010,04,13,03,99
1800300041,2010,04,13,04,99
1800300041,2010,04,13,05,99
1800300041,2010,04,13,06,99
1800300041,2010,04,13,07,99
1800300041,2010,04,13,08,99
1800300041,2010,04,13,09,99
1800300041,2010,04,13,10,99
1800300041,2010,04,13,11,99
1800300041,2010,04,13,12,0.045
1800300041,2010,04,13,13,0.047
1800300041,2010,04,13,14,0.047
1800300041,2010,04,13,15,0.047
1800300041,2010,04,13,16,0.044
1800300041,2010,04,13,17,0.042
1800300041,2010,04,13,18,0.043
1800300041,2010,04,13,19,0.041
1800300041,2010,04,13,20,0.041
1800300041,2010,04,13,21,0.041
1800300041,2010,04,13,22,0.040
1800300041,2010,04,13,23,0.039
1800300041,2010,04,14,00,0.037
1800300041,2010,04,14,01,0.033
1800300041,2010,04,14,02,0.030
1800300041,2010,04,14,03,0.025
1800300041,2010,04,14,04,0.025
1800300041,2010,04,14,05,0.019
1800300041,2010,04,14,06,0.016
1800300041,2010,04,14,07,0.019
1800300041,2010,04,14,08,0.023
1800300041,2010,04,14,09,0.031
1800300041,2010,04,14,10,0.039
1800300041,2010,04,14,11,0.047
1800300041,2010,04,14,12,0.053
1800300041,2010,04,14,13,0.059
1800300041,2010,04,14,14,0.064
1800300041,2010,04,14,15,0.069
1800300041,2010,04,14,16,0.070
1800300041,2010,04,14,17,0.070
1800300041,2010,04,14,18,0.068
1800300041,2010,04,14,19,0.056
1800300041,2010,04,14,20,0.050
1800300041,2010,04,14,21,0.044
1800300041,2010,04,14,22,0.045
1800300041,2010,04,14,23,0.048
1800300041,2010,04,15,00,0.049
1800300041,2010,04,15,01,0.045
1800300041,2010,04,15,02,0.042
1800300041,2010,04,15,03,0.041
1800300041,2010,04,15,04,0.040
1800300041,2010,04,15,05,0.036
1800300041,2010,04,15,06,0.027
1800300041,2010,04,15,07,0.033
1800300041,2010,04,15,08,0.045
1800300041,2010,04,15,09,0.054
1800300041,2010,04,15,10,0.068
1800300041,2010,04,15,11,0.076
1800300041,2010,04,15,12,0.078
1800300041,2010,04,15,13,0.078
1800300041,2010,04,15,14,0.079
1800300041,2010,04,15,15,0.080
1800300041,2010,04,15,16,0.078
1800300041,2010,04,15,17,0.076
1800300041,2010,04,15,18,0.067
1800300041,2010,04,15,19,0.058
1800300041,2010,04,15,20,0.050
1800300041,2010,04,15,21,0.048
1800300041,2010,04,15,22,0.046
1800300041,2010,04,15,23,0.044
1800300041,2010,04,16,00,0.044
1800300041,2010,04,16,01,0.044
1800300041,2010,04,16,02,0.042
1800300041,2010,04,16,03,0.040
1800300041,2010,04,16,04,0.035
1800300041,2010,04,16,05,0.030
1800300041,2010,04,16,06,0.027
1800300041,2010,04,16,07,0.025
1800300041,2010,04,16,08,0.029
1800300041,2010,04,16,09,0.028
1800300041,2010,04,16,10,0.026
1800300041,2010,04,16,11,0.021
1800300041,2010,04,16,12,0.031
1800300041,2010,04,16,13,0.033
1800300041,2010,04,16,14,0.036
1800300041,2010,04,16,15,0.038
1800300041,2010,04,16,16,0.046
1800300041,2010,04,16,17,0.044
1800300041,2010,04,16,18,0.040
1800300041,2010,04,16,19,0.042
1800300041,2010,04,16,20,0.040
1800300041,2010,04,16,21,0.036
1800300041,2010,04,16,22,0.036
1800300041,2010,04,16,23,0.041
1800300041,2010,04,17,00,0.046
1800300041,2010,04,17,01,0.040
1800300041,2010,04,17,02,0.036
1800300041,2010,04,17,03,0.036
1800300041,2010,04,17,04,0.036
1800300041,2010,04,17,05,0.037
1800300041,2010,04,17,06,0.030
1800300041,2010,04,17,07,0.038
1800300041,2010,04,17,08,0.042
1800300041,2010,04,17,09,0.045
1800300041,2010,04,17,10,0.046
1800300041,2010,04,17,11,0.048
1800300041,2010,04,17,12,0.051
1800300041,2010,04,17,13,0.051
1800300041,2010,04,17,14,0.052
1800300041,2010,04,17,15,0.050
1800300041,2010,04,17,16,0.049
1800300041,2010,04,17,17,0.048
1800300041,2010,04,17,18,0.047
1800300041,2010,04,17,19,0.047
1800300041,2010,04,17,20,0.044
1800300041,2010,04,17,21,0.041
1800300041,2010,04,17,22,0.039
1800300041,2010,04,17,23,0.036
1800300041,2010,04,18,00,0.033
1800300041,2010,04,18,01,0.024
1800300041,2010,04,18,02,0.014
1800300041,2010,04,18,03,0.023
1800300041,2010,04,18,04,0.027
1800300041,2010,04,18,05,0.025
1800300041,2010,04,18,06,0.027
1800300041,2010,04,18,07,0.030
1800300041,2010,04,18,08,0.031
1800300041,2010,04,18,09,0.033
1800300041,2010,04,18,10,0.034
1800300041,2010,04,18,11,0.034
1800300041,2010,04,18,12,0.035
1800300041,2010,04,18,13,0.035
1800300041,2010,04,18,14,0.037
1800300041,2010,04,18,15,0.038
1800300041,2010,04,18,16,0.038
1800300041,2010,04,18,17,0.038
1800300041,2010,04,18,18,0.037
1800300041,2010,04,18,19,0.035
1800300041,2010,04,18,20,0.031
1800300041,2010,04,18,21,0.029
1800300041,2010,04,18,22,0.023
1800300041,2010,04,18,23,0.024
1800300041,2010,04,19,00,99
1800300041,2010,04,19,01,0.019
1800300041,2010,04,19,02,0.015
1800300041,2010,04,19,03,0.009
1800300041,2010,04,19,04,0.003
1800300041,2010,04,19,05,0.000
1800300041,2010,04,19,06,0.001
1800300041,2010,04,19,07,0.013
1800300041,2010,04,19,08,0.029
1800300041,2010,04,19,09,0.037
1800300041,2010,04,19,10,0.041
1800300041,2010,04,19,11,0.044
1800300041,2010,04,19,12,0.046
1800300041,2010,04,19,13,0.050
1800300041,2010,04,19,14,0.051
1800300041,2010,04,19,15,0.052
1800300041,2010,04,19,16,0.052
1800300041,2010,04,19,17,0.053
1800300041,2010,04,19,18,0.050
1800300041,2010,04,19,19,0.041
1800300041,2010,04,19,20,0.026
1800300041,2010,04,19,21,0.010
1800300041,2010,04,19,22,0.005
1800300041,2010,04,19,23,0.005
1800300041,2010,04,20,00,0.013
1800300041,2010,04,20,01,0.007
1800300041,2010,04,20,02,0.004
1800300041,2010,04,20,03,0.014
1800300041,2010,04,20,04,0.016
1800300041,2010,04,20,05,0.003
1800300041,2010,04,20,06,0.001
1800300041,2010,04,20,07,0.005
1800300041,2010,04,20,08,0.021
1800300041,2010,04,20,09,0.029
1800300041,2010,04,20,10,0.037
1800300041,2010,04,20,11,0.043
1800300041,2010,04,20,12,0.049
1800300041,2010,04,20,13,0.055
1800300041,2010,04,20,14,0.058
1800300041,2010,04,20,15,0.061
1800300041,2010,04,20,16,0.061
1800300041,2010,04,20,17,0.059
1800300041,2010,04,20,18,0.057
1800300041,2010,04,20,19,0.049
1800300041,2010,04,20,20,0.044
1800300041,2010,04,20,21,0.018
1800300041,2010,04,20,22,0.012
1800300041,2010,04,20,23,0.004
1800300041,2010,04,21,00,0.004
1800300041,2010,04,21,01,0.001
1800300041,2010,04,21,02,0.001
1800300041,2010,04,21,03,0.000
1800300041,2010,04,21,04,0.000
1800300041,2010,04,21,05,-0.00
1800300041,2010,04,21,06,0.000
1800300041,2010,04,21,07,0.006
1800300041,2010,04,21,08,0.028
1800300041,2010,04,21,09,0.047
1800300041,2010,04,21,10,0.056
1800300041,2010,04,21,11,0.061
1800300041,2010,04,21,12,0.062
1800300041,2010,04,21,13,0.055
1800300041,2010,04,21,14,0.061
1800300041,2010,04,21,15,0.060
1800300041,2010,04,21,16,0.060
1800300041,2010,04,21,17,0.060
1800300041,2010,04,21,18,0.060
1800300041,2010,04,21,19,0.056
1800300041,2010,04,21,20,0.048
1800300041,2010,04,21,21,0.036
1800300041,2010,04,21,22,0.012
1800300041,2010,04,21,23,0.016
1800300041,2010,04,22,00,0.014
1800300041,2010,04,22,01,0.033
1800300041,2010,04,22,02,0.029
1800300041,2010,04,22,03,0.026
1800300041,2010,04,22,04,0.014
1800300041,2010,04,22,05,0.011
1800300041,2010,04,22,06,0.008
1800300041,2010,04,22,07,0.011
1800300041,2010,04,22,08,0.016
1800300041,2010,04,22,09,0.018
1800300041,2010,04,22,10,0.024
1800300041,2010,04,22,11,0.032
1800300041,2010,04,22,12,0.043
1800300041,2010,04,22,13,0.047
1800300041,2010,04,22,14,0.059
1800300041,2010,04,22,15,0.062
1800300041,2010,04,22,16,0.063
1800300041,2010,04,22,17,0.063
1800300041,2010,04,22,18,0.060
1800300041,2010,04,22,19,0.048
1800300041,2010,04,22,20,0.038
1800300041,2010,04,22,21,0.031
1800300041,2010,04,22,22,0.029
1800300041,2010,04,22,23,0.027
1800300041,2010,04,23,00,0.026
1800300041,2010,04,23,01,0.027
1800300041,2010,04,23,02,0.025
1800300041,2010,04,23,03,0.025
1800300041,2010,04,23,04,0.028
1800300041,2010,04,23,05,0.027
1800300041,2010,04,23,06,0.019
1800300041,2010,04,23,07,0.020
1800300041,2010,04,23,08,0.031
1800300041,2010,04,23,09,0.043
1800300041,2010,04,23,10,0.045
1800300041,2010,04,23,11,0.047
1800300041,2010,04,23,12,0.052
1800300041,2010,04,23,13,0.053
1800300041,2010,04,23,14,0.052
1800300041,2010,04,23,15,0.051
1800300041,2010,04,23,16,0.051
1800300041,2010,04,23,17,0.047
1800300041,2010,04,23,18,0.038
1800300041,2010,04,23,19,0.039
1800300041,2010,04,23,20,0.038
1800300041,2010,04,23,21,0.033
1800300041,2010,04,23,22,0.031
1800300041,2010,04,23,23,0.029
1800300041,2010,04,24,00,0.027
1800300041,2010,04,24,01,0.029
1800300041,2010,04,24,02,0.028
1800300041,2010,04,24,03,0.029
1800300041,2010,04,24,04,0.030
1800300041,2010,04,24,05,0.029
1800300041,2010,04,24,06,0.034
1800300041,2010,04,24,07,0.035
1800300041,2010,04,24,08,0.036
1800300041,2010,04,24,09,0.036
1800300041,2010,04,24,10,0.036
1800300041,2010,04,24,11,0.032
1800300041,2010,04,24,12,0.027
1800300041,2010,04,24,13,0.029
1800300041,2010,04,24,14,0.027
1800300041,2010,04,24,15,0.027
1800300041,2010,04,24,16,0.033
1800300041,2010,04,24,17,0.032
1800300041,2010,04,24,18,0.032
1800300041,2010,04,24,19,0.031
1800300041,2010,04,24,20,0.032
1800300041,2010,04,24,21,0.033
1800300041,2010,04,24,22,0.038
1800300041,2010,04,24,23,0.036
1800300041,2010,04,25,00,0.034
1800300041,2010,04,25,01,0.039
1800300041,2010,04,25,02,0.036
1800300041,2010,04,25,03,0.033
1800300041,2010,04,25,04,0.031
1800300041,2010,04,25,05,0.030
1800300041,2010,04,25,06,0.029
1800300041,2010,04,25,07,0.029
1800300041,2010,04,25,08,0.029
1800300041,2010,04,25,09,0.030
1800300041,2010,04,25,10,0.034
1800300041,2010,04,25,11,0.045
1800300041,2010,04,25,12,0.047
1800300041,2010,04,25,13,0.049
1800300041,2010,04,25,14,0.049
1800300041,2010,04,25,15,0.044
1800300041,2010,04,25,16,0.041
1800300041,2010,04,25,17,0.041
1800300041,2010,04,25,18,0.038
1800300041,2010,04,25,19,0.036
1800300041,2010,04,25,20,0.036
1800300041,2010,04,25,21,0.037
1800300041,2010,04,25,22,0.035
1800300041,2010,04,25,23,0.036
1800300041,2010,04,26,00,99
1800300041,2010,04,26,01,0.036
1800300041,2010,04,26,02,0.038
1800300041,2010,04,26,03,0.040
1800300041,2010,04,26,04,0.039
1800300041,2010,04,26,05,0.039
1800300041,2010,04,26,06,0.035
1800300041,2010,04,26,07,0.033
1800300041,2010,04,26,08,0.030
1800300041,2010,04,26,09,0.029
1800300041,2010,04,26,10,0.033
1800300041,2010,04,26,11,0.041
1800300041,2010,04,26,12,0.043
1800300041,2010,04,26,13,0.046
1800300041,2010,04,26,14,0.047
1800300041,2010,04,26,15,0.047
1800300041,2010,04,26,16,0.048
1800300041,2010,04,26,17,0.048
1800300041,2010,04,26,18,0.046
1800300041,2010,04,26,19,0.039
1800300041,2010,04,26,20,0.018
1800300041,2010,04,26,21,0.019
1800300041,2010,04,26,22,0.018
1800300041,2010,04,26,23,0.006
1800300041,2010,04,27,00,0.024
1800300041,2010,04,27,01,0.038
1800300041,2010,04,27,02,0.037
1800300041,2010,04,27,03,0.038
1800300041,2010,04,27,04,0.040
1800300041,2010,04,27,05,0.038
1800300041,2010,04,27,06,0.035
1800300041,2010,04,27,07,0.043
1800300041,2010,04,27,08,0.045
1800300041,2010,04,27,09,0.045
1800300041,2010,04,27,10,0.047
1800300041,2010,04,27,11,0.048
1800300041,2010,04,27,12,0.051
1800300041,2010,04,27,13,0.052
1800300041,2010,04,27,14,0.052
1800300041,2010,04,27,15,0.052
1800300041,2010,04,27,16,0.050
1800300041,2010,04,27,17,0.050
1800300041,2010,04,27,18,0.049
1800300041,2010,04,27,19,0.043
1800300041,2010,04,27,20,0.036
1800300041,2010,04,27,21,0.042
1800300041,2010,04,27,22,0.040
1800300041,2010,04,27,23,0.037
1800300041,2010,04,28,00,0.034
1800300041,2010,04,28,01,0.027
1800300041,2010,04,28,02,0.024
1800300041,2010,04,28,03,0.020
1800300041,2010,04,28,04,0.007
1800300041,2010,04,28,05,0.001
1800300041,2010,04,28,06,0.003
1800300041,2010,04,28,07,0.019
1800300041,2010,04,28,08,0.027
1800300041,2010,04,28,09,0.032
1800300041,2010,04,28,10,0.037
1800300041,2010,04,28,11,0.040
1800300041,2010,04,28,12,0.044
1800300041,2010,04,28,13,0.046
1800300041,2010,04,28,14,0.047
1800300041,2010,04,28,15,0.049
1800300041,2010,04,28,16,0.050
1800300041,2010,04,28,17,0.051
1800300041,2010,04,28,18,0.051
1800300041,2010,04,28,19,0.045
1800300041,2010,04,28,20,0.027
1800300041,2010,04,28,21,0.007
1800300041,2010,04,28,22,0.005
1800300041,2010,04,28,23,0.000
1800300041,2010,04,29,00,-0.00
1800300041,2010,04,29,01,0.000
1800300041,2010,04,29,02,-0.00
1800300041,2010,04,29,03,-0.00
1800300041,2010,04,29,04,0.001
1800300041,2010,04,29,05,-0.00
1800300041,2010,04,29,06,0.008
1800300041,2010,04,29,07,99
1800300041,2010,04,29,08,99
1800300041,2010,04,29,09,0.041
1800300041,2010,04,29,10,0.046
1800300041,2010,04,29,11,0.051
1800300041,2010,04,29,12,0.052
1800300041,2010,04,29,13,0.054
1800300041,2010,04,29,14,0.055
1800300041,2010,04,29,15,0.055
1800300041,2010,04,29,16,0.056
1800300041,2010,04,29,17,0.057
1800300041,2010,04,29,18,0.053
1800300041,2010,04,29,19,0.048
1800300041,2010,04,29,20,0.047
1800300041,2010,04,29,21,0.043
1800300041,2010,04,29,22,0.040
1800300041,2010,04,29,23,0.039
1800300041,2010,04,30,00,0.042
1800300041,2010,04,30,01,0.042
1800300041,2010,04,30,02,0.043
1800300041,2010,04,30,03,0.042
1800300041,2010,04,30,04,0.039
1800300041,2010,04,30,05,0.033
1800300041,2010,04,30,06,0.033
1800300041,2010,04,30,07,0.038
1800300041,2010,04,30,08,0.045
1800300041,2010,04,30,09,0.050
1800300041,2010,04,30,10,0.053
1800300041,2010,04,30,11,0.056
1800300041,2010,04,30,12,0.056
1800300041,2010,04,30,13,0.052
1800300041,2010,04,30,14,0.050
1800300041,2010,04,30,15,0.049
1800300041,2010,04,30,16,0.050
1800300041,2010,04,30,17,0.048
1800300041,2010,04,30,18,0.046
1800300041,2010,04,30,19,0.045
1800300041,2010,04,30,20,0.042
1800300041,2010,04,30,21,0.042
1800300041,2010,04,30,22,0.040
1800300041,2010,04,30,23,0.039
1800300041,2010,05,01,00,0.040
1800300041,2010,05,01,01,0.039
1800300041,2010,05,01,02,0.039
1800300041,2010,05,01,03,0.038
1800300041,2010,05,01,04,0.038
1800300041,2010,05,01,05,0.038
1800300041,2010,05,01,06,0.038
1800300041,2010,05,01,07,0.040
1800300041,2010,05,01,08,0.040
1800300041,2010,05,01,09,0.043
1800300041,2010,05,01,10,0.043
1800300041,2010,05,01,11,0.044
1800300041,2010,05,01,12,0.046
1800300041,2010,05,01,13,0.050
1800300041,2010,05,01,14,0.050
1800300041,2010,05,01,15,0.049
1800300041,2010,05,01,16,0.048
1800300041,2010,05,01,17,0.045
1800300041,2010,05,01,18,0.040
1800300041,2010,05,01,19,0.039
1800300041,2010,05,01,20,0.036
1800300041,2010,05,01,21,0.033
1800300041,2010,05,01,22,0.033
1800300041,2010,05,01,23,0.032
1800300041,2010,05,02,00,99
1800300041,2010,05,02,01,99
1800300041,2010,05,02,02,99
1800300041,2010,05,02,03,99
1800300041,2010,05,02,04,99
1800300041,2010,05,02,05,99
1800300041,2010,05,02,06,99
1800300041,2010,05,02,07,99
1800300041,2010,05,02,08,99